Tampa Macdill AFB, FL

8:34 AM EDT on October 16, 2019 (GMT -0400)
MacDill Air Force Base

Weather History for KMCF - August, 2019

Change the Weather History Date:

Sunday, August 11, 2019

  Actual Average Record
Temperature  
Mean Temperature 84 °F -  
Max Temperature 90 °F 87 °F 93 °F (2007)
Min Temperature 80 °F 73 °F 71 °F (1998)
Cooling Degree Days 19    
Growing Degree Days 34 (Base 50)    
Moisture  
Dew Point 79 °F    
Average Humidity 81    
Maximum Humidity 94    
Minimum Humidity 69    
Precipitation  
Precipitation 0.51 in - - ()
Sea Level Pressure  
Sea Level Pressure 29.98 in    
Wind  
Wind Speed 5 mph (WSW)    
Max Wind Speed 18 mph    
Max Gust Speed -    
Visibility 9 miles    
Events Rain , Thunderstorm    
Averages and records for this station are not official NWS values.
T = Trace of Precipitation, MM = Missing Value Source: NWS Daily Summary

Daily Weather History Graph

Daily Weather History Graph

Search for Another Location

Airport or City:

Astronomy

Aug. 11, 2019 Rise Set
Actual Time 6:58 AM EDT 8:12 PM EDT
Civil Twilight 6:33 AM EDT 8:36 PM EDT
Nautical Twilight 6:03 AM EDT 9:06 PM EDT
Astronomical Twilight 5:33 AM EDT 9:36 PM EDT
Moon 5:38 PM EDT (8/11) 3:28 AM EDT (8/11)
Length of Visible Light 14h 03m
Length of Day
13h 13m
Waxing Gibbous, 87% of the Moon is Illuminated
Aug 11
Waxing Gibbous
Aug 15
Full
Aug 23
Last Quarter
Aug 30
New
Sep 5
First Quarter

Hourly Weather History & Observations

Time (EDT) Temp. Heat Index Dew Point Humidity Pressure Visibility Wind Dir Wind Speed Gust Speed Precip Events Conditions
12:56 AM 83.5 °F 93.3 °F 77.4 °F 82% 29.99 in 10.0 mi Calm Calm - N/A   Clear
1:56 AM 82.9 °F 92.4 °F 77.5 °F 84% 29.99 in 10.0 mi Calm Calm - N/A   Clear
2:56 AM 82.2 °F 91.0 °F 77.5 °F 86% 29.96 in 10.0 mi SW 4.6 mph - N/A   Clear
3:56 AM 82.2 °F 91.0 °F 77.5 °F 86% 29.95 in 10.0 mi SSW 3.5 mph - N/A   Clear
4:56 AM 82.8 °F 91.9 °F 77.4 °F 84% 29.94 in 10.0 mi Calm Calm - N/A   Clear
5:56 AM 82.8 °F 91.9 °F 77.4 °F 84% 29.95 in 10.0 mi Calm Calm - N/A   Scattered Clouds
6:56 AM 83.5 °F 93.6 °F 77.7 °F 83% 29.97 in 10.0 mi Calm Calm - N/A   Clear
7:56 AM 85.1 °F 96.7 °F 78.1 °F 79% 30.00 in 10.0 mi Calm Calm - N/A   Clear
8:32 AM 86.0 °F 99.3 °F 78.8 °F 79% 30.00 in 10.0 mi West 8.1 mph - N/A Rain Light Rain
8:45 AM 84.2 °F 94.1 °F 77.0 °F 79% 30.00 in 10.0 mi SW 6.9 mph - N/A   Partly Cloudy
8:56 AM 85.5 °F 96.8 °F 77.4 °F 77% 30.00 in 10.0 mi West 3.5 mph - 0.00 in   Partly Cloudy
9:41 AM 87.8 °F 102.5 °F 78.8 °F 75% 30.02 in 10.0 mi West 9.2 mph - N/A Rain Light Rain
9:56 AM 80.8 °F 87.2 °F 76.5 °F 87% 30.02 in 2.5 mi SW 5.8 mph - 0.19 in Rain Heavy Rain
10:01 AM 80.6 °F 87.1 °F 77.0 °F 89% 30.02 in 7.0 mi SW 5.8 mph - N/A Rain Rain
10:05 AM 80.6 °F 87.1 °F 77.0 °F 89% 30.02 in 10.0 mi SSW 8.1 mph - N/A Rain , Thunderstorm Thunderstorms and Rain
10:20 AM 82.4 °F 92.4 °F 78.8 °F 89% 30.02 in 10.0 mi SSW 6.9 mph - N/A Rain Light Rain
10:26 AM 82.4 °F 94.0 °F 80.6 °F 94% 30.02 in 10.0 mi SSW 4.6 mph - N/A Rain , Thunderstorm Light Thunderstorms and Rain
10:30 AM 84.2 °F 96.1 °F 78.8 °F 84% 30.02 in 10.0 mi SSW 4.6 mph - N/A Thunderstorm Thunderstorm
10:41 AM 86.0 °F 99.3 °F 78.8 °F 79% 30.03 in 10.0 mi SSW 4.6 mph - N/A   Partly Cloudy
10:56 AM 84.4 °F 96.3 °F 78.6 °F 83% 30.03 in 10.0 mi SSW 15.0 mph - 0.16 in   Scattered Clouds
11:08 AM 84.2 °F 96.1 °F 78.8 °F 84% 30.04 in 10.0 mi SSW 18.4 mph - N/A Rain , Thunderstorm Light Rain
11:28 AM 82.4 °F 92.4 °F 78.8 °F 89% 30.03 in 4.0 mi SSW 10.4 mph - N/A Rain Rain
11:31 AM 82.4 °F 92.4 °F 78.8 °F 89% 30.03 in 5.0 mi SSW 8.1 mph - N/A Rain Light Rain
11:46 AM 84.2 °F 96.1 °F 78.8 °F 84% 30.03 in 10.0 mi NW 3.5 mph - N/A   Mostly Cloudy
11:56 AM 83.7 °F 95.3 °F 79.0 °F 86% 30.03 in 10.0 mi SW 6.9 mph - 0.13 in   Mostly Cloudy
12:16 PM 84.2 °F 96.1 °F 78.8 °F 84% 30.02 in 10.0 mi SW 6.9 mph - N/A   Mostly Cloudy
12:21 PM 84.2 °F 96.1 °F 78.8 °F 84% 30.02 in 10.0 mi SW 8.1 mph - N/A   Mostly Cloudy
12:56 PM 86.5 °F 101.5 °F 79.9 °F 80% 30.02 in 10.0 mi SSW 13.8 mph - N/A   Mostly Cloudy
1:36 PM 87.8 °F 104.9 °F 80.6 °F 79% 30.00 in 10.0 mi SW 10.4 mph - N/A   Mostly Cloudy
1:41 PM 86.0 °F 101.9 °F 80.6 °F 84% 30.00 in 10.0 mi SSW 10.4 mph - N/A   Mostly Cloudy
1:43 PM 86.0 °F 99.3 °F 78.8 °F 79% 30.00 in 10.0 mi SSW 9.2 mph - N/A Rain Light Rain
1:52 PM 87.8 °F 102.5 °F 78.8 °F 75% 30.00 in 9.0 mi WSW 5.8 mph - N/A Rain Light Rain
1:53 PM 87.8 °F 102.5 °F 78.8 °F 75% 30.00 in 8.0 mi West 6.9 mph - N/A   Mostly Cloudy
1:55 PM 87.8 °F 102.5 °F 78.8 °F 75% 29.99 in 6.0 mi West 8.1 mph - N/A   Light Drizzle
1:56 PM 87.4 °F 102.0 °F 79.2 °F 76% 29.99 in 6.0 mi West 8.1 mph - 0.00 in   Haze
1:57 PM 87.8 °F 104.9 °F 80.6 °F 79% 29.99 in 5.0 mi West 8.1 mph - N/A   Light Drizzle
2:02 PM 87.8 °F 104.9 °F 80.6 °F 79% 29.99 in 1.0 mi Calm Calm - N/A   Light Drizzle
2:07 PM 87.8 °F 104.9 °F 80.6 °F 79% 29.99 in 3.0 mi Calm Calm - N/A   Light Drizzle
2:08 PM 87.8 °F 104.9 °F 80.6 °F 79% 29.99 in 4.0 mi WSW 3.5 mph - N/A   Haze
2:56 PM 88.9 °F 105.8 °F 79.9 °F 75% 29.97 in 10.0 mi WNW 5.8 mph - 0.00 in   Mostly Cloudy
3:56 PM 88.5 °F 101.1 °F 77.4 °F 69% 29.95 in 10.0 mi WNW 3.5 mph - N/A   Mostly Cloudy
4:46 PM 87.8 °F 102.5 °F 78.8 °F 75% 29.93 in 10.0 mi WSW 3.5 mph - N/A   Overcast
4:54 PM 87.8 °F 102.5 °F 78.8 °F 75% 29.93 in 10.0 mi West 3.5 mph - N/A Rain Light Rain
4:56 PM 87.8 °F 103.1 °F 79.5 °F 76% 29.94 in 10.0 mi Calm Calm - 0.00 in Rain Light Rain
5:09 PM 86.0 °F 101.9 °F 80.6 °F 84% 29.94 in 10.0 mi WNW 4.6 mph - N/A   Overcast
5:19 PM 86.0 °F 99.3 °F 78.8 °F 79% 29.94 in 10.0 mi WNW 8.1 mph - N/A   Mostly Cloudy
5:28 PM 86.0 °F 99.3 °F 78.8 °F 79% 29.94 in 10.0 mi WNW 8.1 mph - N/A Thunderstorm Thunderstorm
5:43 PM 86.0 °F 99.3 °F 78.8 °F 79% 29.94 in 10.0 mi NW 9.2 mph - N/A Thunderstorm Scattered Clouds
5:45 PM 86.0 °F 99.3 °F 78.8 °F 79% 29.94 in 10.0 mi WNW 9.2 mph - N/A Thunderstorm Thunderstorm
5:56 PM 86.5 °F 99.9 °F 78.4 °F 77% 29.94 in 10.0 mi WNW 6.9 mph - 0.01 in Thunderstorm Thunderstorm
6:04 PM 87.8 °F 102.5 °F 78.8 °F 75% 29.94 in 10.0 mi WNW 5.8 mph - N/A Rain , Thunderstorm Light Thunderstorms and Rain
6:23 PM 86.0 °F 99.3 °F 78.8 °F 79% 29.95 in 10.0 mi WNW 5.8 mph - N/A Thunderstorm Thunderstorm
6:26 PM 86.0 °F 99.3 °F 78.8 °F 79% 29.95 in 10.0 mi WNW 3.5 mph - N/A Thunderstorm Partly Cloudy
6:56 PM 85.5 °F 97.2 °F 78.1 °F 78% 29.95 in 10.0 mi West 9.2 mph - 0.02 in   Scattered Clouds
7:11 PM 84.2 °F 94.1 °F 77.0 °F 79% 29.95 in 10.0 mi West 8.1 mph - N/A   Mostly Cloudy
7:16 PM 84.2 °F 94.1 °F 77.0 °F 79% 29.95 in 10.0 mi West 4.6 mph - N/A   Mostly Cloudy
7:56 PM 83.1 °F 91.3 °F 75.9 °F 79% 29.97 in 10.0 mi West 5.8 mph - N/A   Partly Cloudy
8:56 PM 83.1 °F 92.3 °F 77.0 °F 82% 29.97 in 10.0 mi Calm Calm - N/A   Partly Cloudy
9:56 PM 84.2 °F 94.9 °F 77.7 °F 81% 29.97 in 10.0 mi West 3.5 mph - N/A   Partly Cloudy
10:56 PM 84.0 °F 94.4 °F 77.5 °F 81% 29.97 in 10.0 mi Calm Calm - N/A   Partly Cloudy
11:56 PM 83.3 °F 93.5 °F 77.9 °F 84% 29.98 in 10.0 mi Calm Calm - N/A   Clear